GFSGL_250_spd_336.txt.gz
Wind_Speed
65 66 65 67 71 65 63 59 50 45 42 44 46 50 55 50 49 50 48 46 46 49 46 42 34 30 27 11 4 20 33 38 40 39 40 42 43 43 42 41 39 39 40
66 67 67 69 70 65 61 58 48 45 47 47 50 54 51 49 46 48 44 44 41 41 39 40 33 28 26 25 11 8 10 23 36 42 45 46 45 44 43 41 39 37 32
69 69 68 71 68 66 62 53 46 47 50 51 57 56 48 48 48 48 38 39 38 38 35 34 29 23 22 22 23 11 8 6 10 21 28 32 36 38 41 43 34 24 21
72 72 68 70 71 67 60 53 52 50 51 58 59 59 55 47 48 50 40 33 34 32 32 30 28 21 18 16 18 22 10 3 4 5 6 15 19 17 17 19 19 19 20
72 70 69 71 70 66 60 56 54 58 58 60 61 61 58 52 50 51 37 31 31 28 29 25 24 20 15 10 11 14 17 11 6 7 12 11 11 11 14 17 17 16 12
70 70 71 73 71 65 60 58 58 64 65 66 71 70 62 54 52 51 38 35 27 28 25 23 21 18 15 12 2 7 8 8 9 12 13 13 13 14 13 12 12 12 11
71 71 73 71 70 67 64 64 65 68 72 74 76 70 64 58 56 49 40 31 31 28 24 22 20 16 15 11 7 4 0 3 5 6 6 8 8 11 11 10 12 10 8
73 75 73 69 69 67 68 70 72 74 77 82 85 80 75 64 60 47 37 32 28 27 26 23 20 16 14 13 10 6 8 6 3 4 4 4 6 10 11 11 9 9 10
73 74 71 70 69 71 73 76 79 82 87 91 79 74 68 61 54 38 34 34 30 29 27 23 23 19 15 17 15 13 12 11 10 8 6 8 9 11 11 10 10 13 17
75 71 70 70 71 75 78 83 88 92 89 83 74 68 61 54 42 32 34 37 32 29 29 26 23 23 19 18 21 21 19 19 17 16 11 12 12 14 12 14 17 18 20
73 70 71 74 76 80 83 89 88 86 79 70 64 61 55 48 39 35 34 38 33 32 32 31 26 25 24 21 19 22 24 25 24 22 21 20 22 21 21 21 22 20 21
71 73 77 81 83 86 90 86 87 77 66 61 59 55 51 46 41 40 40 39 39 37 34 35 32 27 28 24 22 22 25 32 30 30 31 29 29 27 26 23 22 22 24
76 78 78 79 84 84 85 79 72 60 57 57 54 50 49 46 45 44 45 41 43 43 39 39 36 33 29 29 25 24 25 29 30 31 27 28 32 27 24 25 26 28 29
79 79 77 71 63 65 66 61 54 50 53 53 50 46 46 49 45 44 47 43 45 45 44 43 41 38 34 31 31 27 26 27 30 31 34 34 31 31 31 31 33 31 26
78 76 68 64 57 55 52 50 49 50 51 47 43 41 42 44 44 46 50 46 49 48 47 48 43 42 40 36 34 33 30 27 27 28 29 33 36 36 35 34 33 30 26
77 72 66 59 58 52 46 47 51 52 48 43 37 35 38 41 42 43 51 53 52 53 51 52 47 47 44 43 39 37 34 30 29 27 28 28 28 29 28 28 26 23 24
73 68 63 64 64 50 45 49 52 50 44 40 36 32 31 34 38 42 48 55 54 56 53 56 53 51 48 48 46 42 39 36 34 29 27 28 28 26 25 25 25 24 28
70 68 66 67 57 48 46 47 49 47 43 38 35 33 30 30 33 38 42 50 55 58 58 60 58 55 53 52 51 47 45 41 39 33 32 29 26 27 27 28 28 29 30
72 74 67 62 54 50 49 48 47 45 41 38 36 33 33 31 31 34 37 41 49 56 60 62 62 59 57 57 53 53 47 46 42 41 39 35 34 32 31 30 33 33 33
74 67 61 58 54 54 51 48 48 46 41 38 37 36 34 33 33 33 35 38 39 47 56 66 67 65 60 59 58 57 54 49 48 45 42 43 42 41 39 38 37 37 37
68 64 60 58 55 55 52 51 50 50 45 40 38 39 38 37 34 35 36 36 37 38 47 67 68 67 64 60 60 58 58 59 53 52 53 46 47 47 46 45 43 42 43
67 64 62 60 58 56 55 53 52 52 51 46 41 40 41 40 39 37 38 39 38 39 40 56 70 71 69 66 65 64 62 60 60 58 55 56 55 52 51 51 49 50 50
66 63 62 60 58 56 55 53 53 52 51 52 47 43 43 44 42 40 40 39 41 42 42 45 53 69 73 73 69 67 66 65 65 64 61 62 61 61 60 58 55 53 53
65 64 63 62 62 61 58 55 53 53 53 52 53 51 47 46 46 44 43 43 43 43 45 46 48 51 59 73 77 76 73 73 72 69 67 67 66 65 66 64 64 64 64
68 67 67 66 64 64 62 59 55 54 54 54 54 53 53 51 50 49 47 46 45 45 46 47 49 49 52 58 66 77 78 76 75 76 73 71 71 70 69 66 65 66 67
68 67 67 66 65 65 63 62 59 56 55 55 55 55 55 55 55 55 53 51 49 49 48 49 50 50 52 54 59 65 73 78 78 78 78 76 75 73 73 72 71 71 71

GFSGL_250_spd_339.txt.gz
Wind_Speed
67 66 65 64 61 64 64 65 63 64 58 50 46 45 45 54 55 56 57 57 51 38 36 37 36 29 19 14 8 35 55 60 61 61 61 60 64 65 66 59 59 56 53
69 67 65 63 63 63 64 65 61 62 56 50 48 47 50 53 56 58 58 54 49 40 33 32 32 32 21 15 15 5 8 26 45 68 70 64 62 59 60 60 55 56 53
70 68 65 65 65 61 64 63 62 61 57 50 50 51 52 57 59 62 62 53 48 39 29 29 28 30 24 18 13 12 9 10 17 30 46 56 57 56 59 58 57 51 44
70 66 66 68 65 61 63 62 62 58 56 51 50 53 57 60 61 62 64 60 54 41 29 23 26 26 23 18 13 11 12 6 5 10 22 33 40 45 49 50 47 44 39
68 67 68 68 63 62 63 62 62 59 56 56 55 54 58 59 63 65 69 68 52 41 29 22 22 22 22 14 14 7 9 11 4 2 2 6 7 11 14 21 28 32 29
69 70 70 66 63 63 63 63 64 59 59 59 59 61 61 65 69 73 74 62 47 30 26 24 21 21 20 15 10 7 3 4 7 11 10 7 6 6 8 12 15 17 17
72 72 66 64 61 62 64 65 64 62 61 60 61 67 68 70 73 75 71 59 45 29 26 25 23 21 20 19 10 9 6 1 2 4 6 8 10 11 13 14 16 17 17
72 65 63 59 60 63 66 66 69 64 63 64 66 70 75 76 80 74 68 53 36 27 27 25 24 24 22 19 14 10 10 8 7 7 7 5 7 10 10 11 15 15 11
68 63 59 60 62 64 66 69 67 67 66 69 72 76 79 80 75 73 56 45 36 28 27 28 26 26 24 22 19 15 15 12 12 9 8 9 11 11 13 14 15 13 14
62 59 61 63 65 67 71 70 66 67 69 76 78 78 76 75 73 62 53 46 36 31 31 32 30 28 27 23 22 18 20 20 19 17 14 13 13 12 15 16 16 16 18
60 61 63 66 68 69 69 65 67 71 74 75 77 74 70 64 58 55 50 44 38 36 33 33 35 32 31 26 23 23 19 23 26 25 24 22 21 21 19 20 21 21 24
61 64 68 70 71 71 70 71 76 76 75 75 77 75 65 54 52 50 47 41 38 38 40 40 37 36 34 32 27 25 24 21 27 29 29 29 28 29 28 28 28 27 28
68 68 71 72 72 73 76 73 74 72 71 76 73 63 51 46 47 46 44 40 39 42 42 43 40 41 39 36 34 27 27 26 24 27 33 36 37 36 36 33 32 32 29
73 72 73 73 73 74 75 77 73 71 70 70 58 49 39 41 44 43 41 34 39 43 46 47 45 45 43 42 38 36 30 29 27 25 28 33 36 36 32 31 34 32 31
72 70 70 73 75 75 76 75 70 68 61 54 45 38 35 42 43 40 37 30 37 42 47 52 49 49 49 45 45 42 39 32 31 29 28 27 32 36 37 39 37 38 38
75 77 79 79 77 76 73 70 65 55 49 44 39 37 38 41 41 38 34 29 36 43 45 53 55 53 55 51 50 48 44 41 34 33 32 29 28 31 32 33 36 40 41
82 80 80 77 73 71 68 66 55 45 41 39 38 38 41 40 38 36 33 30 33 42 44 52 59 59 58 56 54 53 50 48 45 38 37 33 30 29 29 31 33 33 34
83 81 76 71 69 67 64 61 46 41 41 38 37 40 42 40 37 35 33 31 29 36 42 49 58 61 61 60 59 58 55 53 50 48 43 38 34 33 30 29 31 32 32
83 78 76 67 66 65 62 49 43 42 41 39 38 40 43 41 36 34 33 32 31 29 35 43 52 61 64 63 62 62 60 57 54 51 50 46 40 37 37 35 33 33 34
75 73 66 66 69 66 55 47 46 44 42 39 40 41 42 41 39 34 33 34 33 31 31 35 44 55 68 68 64 64 63 63 60 57 54 53 50 44 41 42 40 39 39
78 67 75 72 69 58 52 50 49 46 45 41 40 42 44 43 40 39 36 34 35 34 33 33 35 40 55 69 66 64 66 66 65 62 61 56 55 52 50 47 45 44 45
74 71 68 65 60 56 54 52 50 47 46 43 43 42 45 45 44 43 41 39 37 36 37 36 36 37 43 57 67 66 69 71 70 68 66 64 61 58 55 54 55 51 49
69 68 63 61 59 57 54 53 52 49 46 44 43 42 43 46 46 46 45 42 41 40 38 39 39 40 43 46 58 71 73 76 75 74 71 69 67 66 62 60 59 59 59
67 65 64 63 61 59 57 56 54 52 50 48 46 45 44 44 46 48 48 47 46 44 44 42 42 41 42 46 49 56 69 77 79 78 76 72 71 70 70 69 67 64 61
67 66 65 64 63 63 62 60 58 56 55 53 52 52 50 47 46 47 49 49 50 50 49 48 47 45 44 45 49 51 60 70 78 78 78 79 75 74 73 73 72 72 69
70 69 68 66 67 68 67 64 63 62 60 59 57 54 52 49 47 47 48 50 52 53 54 53 51 50 49 48 48 51 56 60 71 81 84 83 82 80 79 79 79 78 76

GFSGL_250_spd_342.txt.gz
Wind_Speed
63 65 64 66 67 67 65 64 61 65 60 59 56 57 56 48 44 43 47 52 53 57 59 47 27 21 21 11 41 47 52 64 64 60 61 65 60 59 60 59 62 61 57
67 68 68 67 67 66 65 64 61 64 59 57 55 56 53 50 43 46 50 52 53 56 58 48 27 18 22 17 12 44 58 58 61 63 67 65 63 64 66 67 65 62 61
70 69 70 70 67 66 65 64 65 63 58 55 55 54 54 52 46 48 51 54 56 59 60 47 34 16 18 22 15 12 26 39 60 69 69 70 68 71 69 70 72 71 66
73 72 73 71 68 67 67 66 65 64 57 55 56 54 54 54 50 52 55 57 57 61 61 53 35 18 18 21 21 14 14 19 17 19 39 64 74 74 72 72 72 68 62
76 74 72 71 69 68 67 66 66 61 55 56 56 57 57 56 52 54 58 60 63 65 61 54 34 22 18 22 20 20 14 14 8 15 13 15 32 50 57 57 58 64 69
79 74 74 71 71 67 66 67 65 61 55 56 55 57 61 57 56 58 60 65 66 64 57 51 28 23 22 22 21 19 16 15 10 4 9 11 8 9 16 20 26 29 31
80 78 74 73 69 66 66 68 62 59 56 56 56 60 59 60 61 63 67 66 58 61 53 44 28 25 25 22 23 19 19 15 12 7 5 2 3 5 8 10 12 12 11
87 80 75 72 68 66 67 62 60 54 56 59 60 61 61 61 63 70 69 66 60 57 48 40 32 28 27 25 24 21 17 19 19 15 11 8 6 8 9 10 11 14 16
79 75 73 71 68 67 66 60 56 54 57 61 62 64 63 62 67 68 73 64 59 51 43 37 33 33 31 29 26 24 20 18 20 19 17 17 13 12 11 11 13 17 17
75 75 71 70 67 66 62 57 54 57 60 62 64 64 63 67 70 72 71 69 60 46 43 39 33 37 36 33 30 27 22 20 21 22 21 18 19 18 17 16 17 21 20
74 70 69 65 64 61 55 56 57 60 62 64 65 64 68 69 73 71 68 65 51 45 42 37 35 41 39 37 34 32 27 23 22 24 27 25 23 22 20 19 21 21 24
71 70 64 60 56 54 56 58 61 62 65 66 66 67 70 72 73 69 65 57 46 41 39 35 35 43 43 39 39 35 32 27 25 24 28 31 30 28 28 28 27 27 27
63 57 54 53 54 56 60 62 65 66 66 68 67 69 73 71 72 65 58 48 42 34 33 32 37 43 47 42 43 41 36 33 29 28 27 28 34 36 36 36 36 35 34
55 54 56 58 61 63 63 66 65 67 66 67 73 75 72 69 70 62 52 41 33 32 31 31 36 46 50 47 45 44 43 39 35 31 31 31 31 34 38 38 39 41 42
63 64 64 66 67 68 68 68 71 70 70 73 76 69 64 66 62 56 43 34 31 31 32 30 39 50 55 54 51 48 47 47 44 38 34 34 32 32 32 35 38 39 38
67 66 71 71 73 73 71 72 72 73 72 73 70 64 63 59 56 43 37 31 30 29 31 32 37 52 55 57 55 55 52 51 49 47 42 37 37 34 32 31 35 38 39
70 70 73 73 74 72 69 70 70 72 73 70 64 61 59 53 46 39 35 30 31 29 28 31 36 45 56 58 59 60 59 56 54 53 50 47 41 38 35 31 32 35 36
75 76 78 77 76 77 74 74 73 73 72 69 63 59 51 42 39 36 34 31 33 31 28 30 33 38 52 59 61 65 65 63 60 57 55 52 49 46 42 37 35 34 33
83 82 81 79 80 78 76 75 74 72 68 66 58 56 48 38 37 37 35 32 33 33 31 30 32 35 42 53 61 68 69 65 64 62 58 58 56 53 50 43 42 38 36
88 86 85 85 82 80 80 77 71 66 65 61 58 55 47 39 37 38 37 35 34 35 35 33 33 35 36 44 51 64 71 70 69 66 65 62 63 60 57 55 49 48 43
91 91 91 88 87 84 74 71 66 62 61 59 54 52 47 42 40 40 40 39 37 37 37 36 36 35 36 38 41 50 66 70 70 70 69 67 65 65 63 60 59 54 53
88 88 88 87 83 76 71 70 64 61 59 54 52 51 49 45 41 41 43 42 42 41 40 40 39 38 39 39 42 45 51 66 70 70 72 71 69 68 67 66 64 62 58
84 84 81 79 72 71 71 66 62 59 55 53 52 51 48 46 44 42 41 43 45 46 45 44 44 42 41 41 43 46 48 52 62 70 73 75 73 71 71 72 71 69 66
77 75 74 72 70 71 69 66 62 59 56 55 54 52 49 47 46 46 44 44 46 47 48 49 48 47 45 45 45 45 48 51 53 57 66 76 79 77 73 74 73 73 72
74 73 73 70 71 70 68 66 64 61 60 60 57 54 50 48 48 48 48 47 46 48 49 50 51 52 51 50 50 48 48 50 53 57 61 67 74 80 79 77 76 77 76
71 71 70 70 72 71 70 70 68 67 65 64 61 59 55 53 53 52 53 52 50 49 50 52 53 54 55 55 55 55 53 52 53 54 57 63 65 76 84 86 85 81 81

GFSGL_250_spd_345.txt.gz
Wind_Speed
70 70 69 68 70 69 67 65 65 67 67 67 66 64 63 63 59 52 52 45 43 43 43 46 43 43 21 16 15 16 33 56 56 67 61 72 65 65 59 63 66 59 55
73 72 71 69 69 69 68 67 65 66 66 66 65 65 61 62 59 53 50 50 46 47 48 49 51 38 34 20 18 17 21 37 50 57 59 64 63 68 70 66 64 61 61
76 73 70 71 72 72 71 69 67 66 65 66 65 63 62 62 56 52 51 49 46 49 52 55 44 35 33 21 20 20 19 28 45 59 60 60 67 73 72 71 70 69 62
83 77 75 75 77 73 72 71 65 68 67 66 66 61 61 58 55 52 53 52 49 50 55 56 49 40 35 24 21 23 22 25 27 31 42 61 70 74 75 74 75 75 71
85 83 78 80 80 74 74 70 71 70 69 67 65 61 59 55 54 51 54 54 51 54 55 57 49 42 35 28 28 23 26 24 25 27 25 29 37 40 45 60 73 82 79
85 85 86 84 81 77 77 74 72 71 72 68 64 63 59 54 53 53 55 54 54 56 59 57 52 47 34 28 32 28 25 26 23 26 27 22 23 32 34 33 39 49 62
88 87 85 83 80 78 78 72 70 75 71 65 62 63 61 53 51 55 57 55 56 60 63 56 52 43 33 28 31 32 26 27 25 25 24 22 20 18 22 26 19 17 21
89 87 84 76 75 76 73 73 74 72 66 65 63 62 59 55 54 56 58 57 57 63 64 58 50 40 32 30 32 35 29 26 25 26 27 25 22 17 16 14 14 12 11
87 82 78 74 74 72 72 74 74 66 65 63 61 60 55 57 58 61 60 59 63 67 62 56 46 38 35 33 35 38 36 28 26 26 28 28 26 23 17 12 12 11 12
82 80 77 74 74 75 69 70 68 66 65 63 58 53 54 56 59 61 61 64 66 70 62 54 43 37 38 36 36 40 41 33 28 26 27 29 28 26 24 20 17 16 15
82 81 77 72 71 69 71 65 63 63 64 59 54 53 56 57 60 62 64 68 70 72 60 53 42 41 40 37 36 43 44 37 32 29 27 29 30 28 26 27 25 21 21
72 70 70 66 68 67 65 64 60 63 62 56 54 57 59 60 61 63 66 67 74 68 57 50 42 40 40 36 38 45 46 40 37 33 31 30 32 34 31 29 28 26 24
69 70 68 63 63 63 64 62 61 58 52 53 57 59 61 62 64 66 68 72 68 62 54 47 38 40 35 35 39 47 49 44 40 38 33 33 33 35 36 36 33 33 33
67 69 72 67 66 65 60 58 54 53 55 59 61 62 63 63 66 67 67 68 64 59 51 45 38 36 35 34 39 47 51 49 45 42 39 36 35 36 36 37 39 40 41
61 60 61 62 60 59 55 55 56 58 62 63 63 65 66 64 67 67 67 65 61 55 48 40 36 34 32 34 39 48 53 51 49 48 46 44 39 37 36 36 35 37 41
65 65 64 61 58 57 59 61 62 64 67 65 66 68 67 67 70 71 69 63 59 53 47 38 33 34 32 32 38 49 56 56 53 53 51 50 49 46 40 38 38 37 38
70 70 66 64 66 66 65 64 66 66 68 70 69 69 70 69 70 70 67 59 54 49 46 38 33 33 31 31 35 46 59 61 60 57 57 55 53 50 50 46 42 39 38
75 73 70 69 69 69 68 69 70 70 69 72 72 72 72 72 71 74 63 55 53 47 44 38 34 32 32 31 32 43 57 62 63 64 63 60 59 57 54 51 50 46 43
78 78 77 76 76 74 72 72 74 74 73 74 75 77 74 76 74 72 60 54 52 47 43 40 36 35 32 34 33 34 52 61 62 65 66 68 66 64 59 57 55 53 50
86 85 84 83 81 80 79 77 78 77 80 81 81 79 79 80 79 73 60 53 50 47 44 41 39 38 37 36 37 37 38 51 66 66 67 66 70 69 65 62 61 59 57
85 86 87 88 88 87 87 88 88 88 85 85 84 84 82 84 77 69 59 53 49 48 47 45 42 41 40 41 40 39 42 42 47 57 72 74 70 70 70 70 67 65 62
80 80 81 83 84 85 85 85 83 84 85 84 84 88 82 81 69 63 59 52 49 50 50 48 47 44 45 44 45 44 44 45 47 45 52 63 70 71 72 70 70 69 70
80 80 81 83 84 84 85 86 86 88 89 85 82 83 82 73 65 61 57 52 51 51 51 51 51 49 50 50 49 49 48 47 47 49 50 51 56 62 67 70 73 71 70
85 85 84 83 83 82 82 81 79 79 79 80 76 75 73 67 64 62 57 53 52 52 52 52 53 53 52 54 54 54 53 51 51 49 50 52 55 56 59 64 69 74 75
85 86 87 84 83 82 81 80 79 77 78 77 75 72 70 66 65 63 59 56 53 52 53 54 53 53 52 53 55 56 58 58 55 53 53 53 54 56 60 60 62 67 72
85 83 82 81 78 77 79 79 78 77 75 73 72 72 72 70 68 65 62 62 59 56 55 54 55 56 57 56 57 57 58 60 61 59 57 56 57 58 57 59 62 64 66